| time (UTC) | temp F | wind direction | speed MPH | gust MPH | rain 1hr in | rain 24hr in | rain mn in | humidity % | barometer mb |
| 20260504193554 | 69 | 300 | 4.0 | 11.0 | 0.00 | 0.06 | 0.06 | 44 | 1000.6 |
| 20260504193059 | 69 | 226 | 3.0 | 11.0 | 0.00 | 0.06 | 0.06 | 44 | 1000.6 |
| 20260504192552 | 69 | 260 | 4.0 | 11.0 | 0.00 | 0.06 | 0.06 | 44 | 1000.7 |
| 20260504192048 | 69 | 246 | 3.0 | 10.0 | 0.00 | 0.06 | 0.06 | 44 | 1000.7 |
| 20260504191552 | 69 | 238 | 3.0 | 10.0 | 0.00 | 0.06 | 0.06 | 44 | 1000.8 |
| 20260504191051 | 69 | 228 | 3.0 | 9.0 | 0.00 | 0.06 | 0.06 | 44 | 1000.8 |
| 20260504190551 | 69 | 255 | 2.0 | 9.0 | 0.00 | 0.06 | 0.06 | 45 | 1000.9 |
| 20260504190100 | 68 | 261 | 2.0 | 7.0 | 0.00 | 0.06 | 0.06 | 45 | 1000.9 |
| 20260504185551 | 68 | 244 | 1.0 | 6.0 | 0.00 | 0.06 | 0.06 | 47 | 1000.9 |
| 20260504185055 | 68 | 254 | 1.0 | 6.0 | 0.00 | 0.06 | 0.06 | 47 | 1001.0 |
| 20260504184602 | 67 | 263 | 2.0 | 10.0 | 0.00 | 0.06 | 0.06 | 48 | 1000.9 |
| 20260504184052 | 67 | 259 | 3.0 | 10.0 | 0.00 | 0.06 | 0.06 | 47 | 1001.1 |
| 20260504183549 | 67 | 235 | 4.0 | 11.0 | 0.00 | 0.06 | 0.06 | 46 | 1001.2 |
| 20260504183059 | 68 | 217 | 3.0 | 12.0 | 0.00 | 0.06 | 0.06 | 46 | 1001.2 |
| 20260504182554 | 68 | 279 | 3.0 | 12.0 | 0.00 | 0.06 | 0.06 | 46 | 1001.3 |
| 20260504182051 | 68 | 225 | 4.0 | 12.0 | 0.00 | 0.06 | 0.06 | 47 | 1001.3 |
| 20260504181555 | 67 | 248 | 3.0 | 11.0 | 0.00 | 0.06 | 0.06 | 48 | 1001.3 |
| 20260504181051 | 67 | 0 | 3.0 | 12.0 | 0.00 | 0.06 | 0.06 | 49 | 1001.5 |
| 20260504180555 | 68 | 236 | 3.0 | 12.0 | 0.00 | 0.06 | 0.06 | 48 | 1001.6 |
| 20260504180054 | 66 | 323 | 4.0 | 12.0 | 0.00 | 0.06 | 0.06 | 50 | 1001.6 |
| 20260504175553 | 66 | 275 | 1.0 | 9.0 | 0.00 | 0.06 | 0.06 | 50 | 1001.8 |
| 20260504175051 | 65 | 258 | 3.0 | 9.0 | 0.00 | 0.06 | 0.06 | 50 | 1001.9 |
| 20260504174553 | 66 | 240 | 3.0 | 8.0 | 0.00 | 0.06 | 0.06 | 50 | 1001.9 |
| 20260504174052 | 66 | 286 | 3.0 | 9.0 | 0.00 | 0.06 | 0.06 | 51 | 1001.9 |
| 20260504173551 | 65 | 212 | 4.0 | 9.0 | 0.00 | 0.06 | 0.06 | 50 | 1002.1 |
| 20260504173054 | 65 | 225 | 1.0 | 7.0 | 0.00 | 0.06 | 0.06 | 51 | 1002.3 |
| 20260504172552 | 65 | 292 | 1.0 | 8.0 | 0.00 | 0.06 | 0.06 | 52 | 1002.2 |
| 20260504172052 | 64 | 320 | 1.0 | 10.0 | 0.00 | 0.06 | 0.06 | 53 | 1002.3 |
| 20260504171553 | 64 | 288 | 3.0 | 10.0 | 0.00 | 0.06 | 0.06 | 54 | 1002.4 |
| 20260504171052 | 64 | 295 | 3.0 | 9.0 | 0.00 | 0.06 | 0.06 | 53 | 1002.6 |
| 20260504170552 | 64 | 217 | 2.0 | 9.0 | 0.00 | 0.06 | 0.06 | 53 | 1002.4 |
| 20260504151051 | 60 | 0 | 3.0 | 10.0 | 0.00 | 0.06 | 0.06 | 63 | 1003.4 |
| 20260504150555 | 60 | 334 | 3.0 | 9.0 | 0.00 | 0.06 | 0.06 | 64 | 1003.3 |
| 20260504141052 | 56 | 284 | 2.0 | 9.0 | 0.00 | 0.06 | 0.06 | 72 | 1003.4 |
| 20260504140552 | 56 | 300 | 1.0 | 8.0 | 0.00 | 0.06 | 0.06 | 70 | 1003.4 |
| 20260504130552 | 52 | 280 | 2.0 | 9.0 | 0.00 | 0.06 | 0.06 | 80 | 1003.3 |
| 20260504110549 | 48 | 0 | 2.0 | 8.0 | 0.00 | 0.06 | 0.06 | 88 | 1002.7 |
| 20260504100551 | 47 | 0 | 0.0 | 6.0 | 0.03 | 0.06 | 0.06 | 87 | 1002.4 |
| 20260504081555 | 47 | 0 | 0.0 | 1.0 | 0.00 | 0.01 | 0.01 | 83 | 1003.0 |
| 20260504081049 | 47 | 0 | 0.0 | 1.0 | 0.00 | 0.01 | 0.01 | 82 | 1003.0 |
| 20260504080548 | 47 | 0 | 0.0 | 4.0 | 0.00 | 0.01 | 0.01 | 82 | 1003.2 |
| 20260504070103 | 48 | 0 | 0.0 | 4.0 | 0.01 | 0.01 | 0.01 | 74 | 1003.7 |
| 20260504050551 | 50 | 290 | 2.0 | 7.0 | 0.00 | 0.00 | 0.00 | 60 | 1004.8 |
| 20260504045550 | 51 | 294 | 1.0 | 7.0 | 0.00 | 0.00 | 0.00 | 59 | 1004.8 |
| 20260504045051 | 51 | 270 | 2.0 | 7.0 | 0.00 | 0.00 | 0.00 | 58 | 1004.8 |
| 20260504044602 | 52 | 227 | 1.0 | 10.0 | 0.00 | 0.00 | 0.00 | 57 | 1004.8 |
| 20260504044052 | 52 | 259 | 2.0 | 10.0 | 0.00 | 0.00 | 0.00 | 56 | 1004.8 |
| 20260504043553 | 52 | 0 | 1.0 | 8.0 | 0.00 | 0.00 | 0.00 | 56 | 1004.9 |
| 20260504043054 | 52 | 297 | 1.0 | 7.0 | 0.00 | 0.00 | 0.00 | 56 | 1004.9 |
| 20260504042552 | 52 | 272 | 0.0 | 6.0 | 0.00 | 0.00 | 0.00 | 56 | 1004.9 |
| 20260504042050 | 52 | 277 | 1.0 | 6.0 | 0.00 | 0.00 | 0.00 | 56 | 1004.9 |
| 20260504041553 | 52 | 0 | 1.0 | 6.0 | 0.00 | 0.00 | 0.00 | 57 | 1004.9 |
| 20260504041052 | 52 | 0 | 0.0 | 5.0 | 0.00 | 0.00 | 0.00 | 57 | 1004.9 |
| 20260504040555 | 52 | 0 | 0.0 | 6.0 | 0.00 | 0.00 | 0.00 | 58 | 1004.9 |
| 20260504040052 | 52 | 0 | 1.0 | 7.0 | 0.00 | 0.00 | 0.00 | 58 | 1004.9 |
| 20260504035549 | 52 | 0 | 2.0 | 7.0 | 0.00 | 0.00 | 0.00 | 58 | 1004.9 |
| 20260504035053 | 52 | 0 | 0.0 | 9.0 | 0.00 | 0.00 | 0.00 | 58 | 1004.9 |
| 20260504034609 | 52 | 0 | 2.0 | 10.0 | 0.00 | 0.00 | 0.00 | 57 | 1004.9 |
| 20260504034051 | 53 | 276 | 2.0 | 12.0 | 0.00 | 0.00 | 0.00 | 57 | 1005.0 |
| 20260504033551 | 53 | 285 | 3.0 | 12.0 | 0.00 | 0.00 | 0.00 | 55 | 1005.1 |
| 20260504033054 | 53 | 300 | 1.0 | 11.0 | 0.00 | 0.00 | 0.00 | 53 | 1005.0 |
| 20260504032553 | 53 | 288 | 3.0 | 11.0 | 0.00 | 0.00 | 0.00 | 52 | 1005.1 |
| 20260504032052 | 53 | 292 | 1.0 | 10.0 | 0.00 | 0.00 | 0.00 | 51 | 1005.0 |
| 20260504031555 | 53 | 282 | 0.0 | 9.0 | 0.00 | 0.00 | 0.00 | 50 | 1005.0 |
| 20260504031050 | 53 | 0 | 2.0 | 10.0 | 0.00 | 0.00 | 0.00 | 50 | 1005.0 |
| 20260504030549 | 54 | 0 | 2.0 | 10.0 | 0.00 | 0.00 | 0.00 | 49 | 1005.1 |
| 20260504030054 | 54 | 0 | 1.0 | 11.0 | 0.00 | 0.00 | 0.00 | 48 | 1005.1 |
| 20260504025550 | 54 | 270 | 2.0 | 11.0 | 0.00 | 0.00 | 0.00 | 47 | 1005.1 |
| 20260504025051 | 54 | 0 | 3.0 | 11.0 | 0.00 | 0.00 | 0.00 | 46 | 1005.1 |
| 20260504024553 | 54 | 259 | 1.0 | 8.0 | 0.00 | 0.00 | 0.00 | 45 | 1005.0 |
| 20260504024052 | 54 | 260 | 1.0 | 8.0 | 0.00 | 0.00 | 0.00 | 45 | 1005.1 |
| 20260504023552 | 54 | 0 | 1.0 | 9.0 | 0.00 | 0.00 | 0.00 | 44 | 1005.2 |
| 20260504023051 | 54 | 0 | 2.0 | 9.0 | 0.00 | 0.00 | 0.00 | 43 | 1005.2 |
| 20260504022554 | 54 | 0 | 0.0 | 8.0 | 0.00 | 0.00 | 0.00 | 42 | 1005.3 |
| 20260504022050 | 54 | 302 | 2.0 | 8.0 | 0.00 | 0.00 | 0.00 | 42 | 1005.3 |
| 20260504021554 | 54 | 0 | 1.0 | 5.0 | 0.00 | 0.00 | 0.00 | 42 | 1005.3 |
| 20260504021054 | 54 | 303 | 0.0 | 5.0 | 0.00 | 0.00 | 0.00 | 42 | 1005.3 |
| 20260504020551 | 55 | 305 | 0.0 | 4.0 | 0.00 | 0.00 | 0.00 | 41 | 1005.3 |
| 20260504020051 | 55 | 305 | 0.0 | 4.0 | 0.00 | 0.00 | 0.00 | 41 | 1005.2 |
| 20260504015551 | 55 | 0 | 1.0 | 8.0 | 0.00 | 0.00 | 0.00 | 41 | 1005.2 |
| 20260504015051 | 55 | 0 | 1.0 | 8.0 | 0.00 | 0.00 | 0.00 | 41 | 1005.2 |
| 20260504014619 | 55 | 0 | 1.0 | 10.0 | 0.00 | 0.00 | 0.00 | 42 | 1005.2 |
| 20260504014048 | 55 | 0 | 1.0 | 10.0 | 0.00 | 0.00 | 0.00 | 41 | 1005.2 |
| 20260504013552 | 55 | 298 | 2.0 | 11.0 | 0.00 | 0.00 | 0.00 | 41 | 1005.2 |
| 20260504013055 | 55 | 0 | 2.0 | 11.0 | 0.00 | 0.00 | 0.00 | 42 | 1005.2 |
| 20260504012549 | 55 | 275 | 2.0 | 11.0 | 0.00 | 0.00 | 0.00 | 41 | 1005.3 |
| 20260504012049 | 55 | 300 | 1.0 | 11.0 | 0.00 | 0.00 | 0.00 | 40 | 1005.3 |
| 20260504011559 | 55 | 277 | 3.0 | 9.0 | 0.00 | 0.00 | 0.00 | 39 | 1005.3 |
| 20260504011050 | 55 | 323 | 2.0 | 11.0 | 0.00 | 0.00 | 0.00 | 37 | 1005.2 |
| 20260504010549 | 55 | 336 | 2.0 | 11.0 | 0.00 | 0.00 | 0.00 | 37 | 1005.2 |
| 20260504010058 | 56 | 312 | 1.0 | 11.0 | 0.00 | 0.00 | 0.00 | 36 | 1005.0 |
| 20260504005552 | 56 | 281 | 0.0 | 10.0 | 0.00 | 0.00 | 0.00 | 36 | 1005.0 |
| 20260504005052 | 56 | 0 | 2.0 | 10.0 | 0.00 | 0.00 | 0.00 | 36 | 1004.9 |
| 20260504004556 | 56 | 275 | 1.0 | 8.0 | 0.00 | 0.00 | 0.00 | 35 | 1004.8 |
| 20260504004051 | 56 | 260 | 2.0 | 8.0 | 0.00 | 0.00 | 0.00 | 35 | 1004.9 |
| 20260504003551 | 56 | 0 | 1.0 | 11.0 | 0.00 | 0.00 | 0.00 | 35 | 1004.8 |
| 20260504003059 | 57 | 347 | 2.0 | 11.0 | 0.00 | 0.00 | 0.00 | 34 | 1004.8 |
| 20260504002552 | 57 | 315 | 2.0 | 11.0 | 0.00 | 0.00 | 0.00 | 33 | 1004.8 |
| 20260504002052 | 57 | 285 | 3.0 | 10.0 | 0.00 | 0.00 | 0.00 | 33 | 1004.8 |
| 20260504001601 | 57 | 327 | 1.0 | 12.0 | 0.00 | 0.00 | 0.00 | 32 | 1004.7 |
| 20260504001053 | 57 | 265 | 2.0 | 12.0 | 0.00 | 0.00 | 0.00 | 31 | 1004.7 |
| 20260504000553 | 57 | 293 | 3.0 | 9.0 | 0.00 | 0.00 | 0.00 | 31 | 1004.7 |
| 20260504000053 | 58 | 0 | 1.0 | 8.0 | 0.00 | 0.00 | 0.00 | 30 | 1004.7 |
| 20260503235553 | 58 | 306 | 2.0 | 8.0 | 0.00 | 0.00 | 0.00 | 29 | 1004.7 |
| 20260503235055 | 58 | 317 | 2.0 | 8.0 | 0.00 | 0.00 | 0.00 | 28 | 1004.7 |
| 20260503234554 | 58 | 300 | 1.0 | 6.0 | 0.00 | 0.00 | 0.00 | 28 | 1004.7 |
| 20260503234052 | 58 | 344 | 0.0 | 6.0 | 0.00 | 0.00 | 0.00 | 27 | 1004.7 |
| 20260503233552 | 58 | 321 | 1.0 | 8.0 | 0.00 | 0.00 | 0.00 | 27 | 1004.7 |
| 20260503233057 | 58 | 0 | 1.0 | 8.0 | 0.00 | 0.00 | 0.00 | 27 | 1004.7 |
| 20260503232553 | 58 | 283 | 2.0 | 8.0 | 0.00 | 0.00 | 0.00 | 27 | 1004.7 |
| 20260503232056 | 58 | 299 | 1.0 | 8.0 | 0.00 | 0.00 | 0.00 | 27 | 1004.6 |
| 20260503231551 | 58 | 0 | 0.0 | 7.0 | 0.00 | 0.00 | 0.00 | 26 | 1004.6 |
| 20260503231052 | 59 | 283 | 2.0 | 7.0 | 0.00 | 0.00 | 0.00 | 26 | 1004.7 |
| 20260503230552 | 59 | 293 | 0.0 | 6.0 | 0.00 | 0.00 | 0.00 | 26 | 1004.7 |
| 20260503230058 | 59 | 317 | 2.0 | 10.0 | 0.00 | 0.00 | 0.00 | 25 | 1004.7 |
| 20260503225551 | 59 | 295 | 1.0 | 10.0 | 0.00 | 0.00 | 0.00 | 25 | 1004.7 |
| 20260503225051 | 60 | 304 | 2.0 | 14.0 | 0.00 | 0.00 | 0.00 | 24 | 1004.7 |
| 20260503224551 | 60 | 344 | 3.0 | 14.0 | 0.00 | 0.00 | 0.00 | 24 | 1004.7 |
| 20260503224050 | 60 | 312 | 5.0 | 14.0 | 0.00 | 0.00 | 0.00 | 24 | 1004.7 |
| 20260503223553 | 60 | 324 | 2.0 | 11.0 | 0.00 | 0.00 | 0.00 | 24 | 1004.7 |
| 20260503223052 | 60 | 323 | 1.0 | 12.0 | 0.00 | 0.00 | 0.00 | 25 | 1004.7 |
| 20260503222549 | 60 | 0 | 4.0 | 12.0 | 0.00 | 0.00 | 0.00 | 24 | 1004.8 |
| 20260503222052 | 60 | 286 | 3.0 | 10.0 | 0.00 | 0.00 | 0.00 | 24 | 1004.8 |
| 20260503221552 | 60 | 0 | 1.0 | 8.0 | 0.00 | 0.00 | 0.00 | 24 | 1004.8 |
| 20260503221052 | 60 | 22 | 2.0 | 7.0 | 0.00 | 0.00 | 0.00 | 23 | 1004.8 |
| 20260503220552 | 61 | 281 | 2.0 | 10.0 | 0.00 | 0.00 | 0.00 | 23 | 1004.8 |
| 20260503220055 | 61 | 0 | 2.0 | 11.0 | 0.00 | 0.00 | 0.00 | 23 | 1004.8 |
| 20260503215551 | 61 | 313 | 3.0 | 11.0 | 0.00 | 0.00 | 0.00 | 23 | 1004.9 |
| 20260503215054 | 61 | 295 | 4.0 | 12.0 | 0.00 | 0.00 | 0.00 | 23 | 1004.9 |
| 20260503214555 | 62 | 313 | 4.0 | 12.0 | 0.00 | 0.00 | 0.00 | 22 | 1004.9 |
| 20260503214051 | 62 | 291 | 3.0 | 12.0 | 0.00 | 0.00 | 0.00 | 22 | 1004.8 |
| 20260503213549 | 62 | 298 | 3.0 | 10.0 | 0.00 | 0.00 | 0.00 | 22 | 1004.8 |
| 20260503213107 | 62 | 309 | 3.0 | 10.0 | 0.00 | 0.00 | 0.00 | 22 | 1004.9 |
| 20260503212556 | 62 | 276 | 2.0 | 10.0 | 0.00 | 0.00 | 0.00 | 23 | 1004.9 |
| 20260503212053 | 62 | 288 | 2.0 | 10.0 | 0.00 | 0.00 | 0.00 | 23 | 1004.9 |
| 20260503211554 | 62 | 304 | 3.0 | 11.0 | 0.00 | 0.00 | 0.00 | 22 | 1004.9 |
| 20260503211052 | 62 | 318 | 4.0 | 11.0 | 0.00 | 0.00 | 0.00 | 22 | 1004.9 |
| 20260503210552 | 61 | 350 | 3.0 | 18.0 | 0.00 | 0.00 | 0.00 | 23 | 1004.9 |
| 20260503210105 | 62 | 254 | 5.0 | 18.0 | 0.00 | 0.00 | 0.00 | 22 | 1005.0 |
| 20260503205549 | 62 | 355 | 3.0 | 13.0 | 0.00 | 0.00 | 0.00 | 22 | 1004.9 |
| 20260503205052 | 62 | 302 | 2.0 | 10.0 | 0.00 | 0.00 | 0.00 | 23 | 1005.0 |
| 20260503204559 | 62 | 259 | 3.0 | 14.0 | 0.00 | 0.00 | 0.00 | 23 | 1005.1 |
| 20260503204053 | 62 | 310 | 5.0 | 14.0 | 0.00 | 0.00 | 0.00 | 22 | 1005.1 |
| 20260503203550 | 62 | 315 | 4.0 | 13.0 | 0.00 | 0.00 | 0.00 | 23 | 1005.2 |
| 20260503203104 | 62 | 302 | 3.0 | 10.0 | 0.00 | 0.00 | 0.00 | 23 | 1005.1 |
| 20260503202551 | 62 | 315 | 2.0 | 10.0 | 0.00 | 0.00 | 0.00 | 24 | 1005.2 |
| 20260503202051 | 61 | 320 | 4.0 | 10.0 | 0.00 | 0.00 | 0.00 | 23 | 1005.2 |
| 20260503201554 | 61 | 338 | 3.0 | 10.0 | 0.00 | 0.00 | 0.00 | 24 | 1005.2 |
| 20260503201050 | 61 | 279 | 2.0 | 12.0 | 0.00 | 0.00 | 0.00 | 23 | 1005.2 |
| 20260503200552 | 61 | 294 | 3.0 | 13.0 | 0.00 | 0.00 | 0.00 | 24 | 1005.5 |
| 20260503200057 | 61 | 344 | 3.0 | 13.0 | 0.00 | 0.00 | 0.00 | 24 | 1005.6 |
| 20260503195551 | 61 | 298 | 4.0 | 13.0 | 0.00 | 0.00 | 0.00 | 24 | 1005.5 |
| 20260503195050 | 61 | 224 | 2.0 | 13.0 | 0.00 | 0.00 | 0.00 | 24 | 1005.5 |
| 20260503194556 | 61 | 5 | 5.0 | 13.0 | 0.00 | 0.00 | 0.00 | 24 | 1005.7 |
| 20260503194053 | 61 | 278 | 4.0 | 16.0 | 0.00 | 0.00 | 0.00 | 23 | 1005.9 |